Location: Wien
(48.2082°N, 16.3738°E)
Time: 01:19:32
(UTC+02:00)

JY1SAT - Visible Passes

Search period start: 17 May 2025 00:00
Search period end: 27 May 2025 00:00
Orbit: 500 x 510 km, 97.5° (Epoch: 16 May)

Date Brightness Start Highest point End Pass type
(mag) Time Alt. Az. Time Alt. Az. Time Alt. Az.
17 May ? 21:43:11 11° SSE 21:46:45 89° WSW 21:50:31 10° NNW visible
18 May ? 21:24:58 10° SSE 21:28:37 56° ENE 21:32:18 10° N visible
18 May ? 23:01:03 10° WSW 23:02:49 13° W 23:04:35 10° WNW visible
19 May ? 21:07:07 10° SE 21:10:31 35° ENE 21:13:57 10° N visible
19 May ? 22:41:40 10° SW 22:44:28 20° W 22:47:17 10° NW visible
20 May ? 22:22:49 10° SSW 22:26:09 31° W 22:29:32 10° NNW visible
21 May ? 22:04:16 10° S 22:07:52 50° W 22:11:31 10° NNW visible
22 May ? 21:45:53 10° SSE 21:49:36 83° WSW 21:53:22 10° NNW visible
23 May ? 21:27:42 10° SSE 21:31:22 60° ENE 21:35:03 10° N visible
23 May ? 23:04:05 10° WSW 23:05:35 12° W 23:07:07 10° WNW visible
24 May ? 22:44:26 10° SW 22:47:08 19° W 22:49:50 10° NW visible
25 May ? 22:25:25 10° SSW 22:28:42 29° W 22:32:00 10° NW visible
26 May ? 22:06:43 10° S 22:10:18 47° W 22:13:55 10° NNW visible
